Weather Roundup
Issued by NWS

Home | Current Version | Previous Version | Graphics & Text | Print | Product List | Glossary Off
Versions: 1 2 3 4 5 6 7 8 9 10 11 12 13 14 15 16 17 18 19 20 21 22 23 24 25 26 27 28 29 30 31 32 33 34 35 36 37 38 39 40 41 42 43 44 45 46 47 48 49 50

000
NZUS93 KARX 251659
HRRWXR

CURRENT HOURLY OBSERVATIONS ACROSS
MUCH OF THE UPPER MISSISSIPPI VALLEY
NATIONAL WEATHER SERVICE LA CROSSE WI
1200 PM CDT THU MAY 25 2017


...SOUTHEAST MINNESOTA...


CITY           SKY/WX    TMP DP  RH WIND       PRES   REMARKS
ROCHESTER      PTSUNNY   61  53  75 E9        29.71S
ROCHESTER/MAYO FAIR      61  49  63 CALM      29.70F
WINONA         SUNNY     61  52  72 CALM      29.71R
AUSTIN         SUNNY     63  52  67 S3        29.69F
ALBERT LEA     SUNNY     64  52  63 SE7       29.68F
DODGE CENTER   MOSUNNY   63  48  59 SE8       29.69F
PRESTON        MOSUNNY   59  51  73 CALM      29.72R
OWATONNA       MOSUNNY   64  48  55 S8G16     29.68F
FARIBAULT      PTSUNNY   64  50  59 SE8       29.68F
$$

...ELSEWHERE IN MINNESOTA...


CITY           SKY/WX    TMP DP  RH WIND       PRES   REMARKS
MINNEAPOLIS    PTSUNNY   66  48  52 S13       29.68S
INTNL FALLS    MOSUNNY   65  44  46 SE16G22   29.66F
DULUTH         MOSUNNY   59  48  67 E10       29.72F
RED WING       SUNNY     64  46  52 SE9       29.68F
REDWOOD FALLS  CLOUDY    66  48  52 SE21G30   29.62S
MANKATO        PTSUNNY   63  50  62 SE15      29.66F
WORTHINGTON    SUNNY     64  49  57 S23G29    29.60F
FAIRMONT       MOSUNNY   63  48  58 S16G24    29.65S
$$

...SOUTHWEST WISCONSIN...


CITY           SKY/WX    TMP DP  RH WIND       PRES   REMARKS
LA CROSSE      MOSUNNY   64  53  67 W6        29.69F
PRAIRIE DU CHI MOSUNNY   61  50  67 NW5       29.70F
BOSCOBEL       MOSUNNY   64  52  64 W3        29.69F
LONE ROCK      NOT AVBL
PLATTEVILLE    CLOUDY    58  55  88 N3        29.70F
FORT MC COY    MOSUNNY   62  53  73 N5        29.70S
MAUSTON-NEW LI PTSUNNY   64  53  67 SW3       29.68S
VIROQUA        PTSUNNY   58  52  81 CALM      29.71S
WIS DELLS      PTSUNNY   62  52  69 CALM      29.69S
$$

...ELSEWHERE IN WISCONSIN...


CITY           SKY/WX    TMP DP  RH WIND       PRES   REMARKS
MILWAUKEE      MOSUNNY   61  52  72 N15G23    29.65R
MADISON        PTSUNNY   61  53  75 NE8       29.68R
GREEN BAY      SUNNY     63  55  75 NE15      29.69R
EAU CLAIRE     MOSUNNY   65  49  56 CALM      29.69F
BLACK RVR FLS  PTSUNNY   66  50  55 SE5       29.69S
MEDFORD        MOSUNNY   64  51  63 N6        29.70F
WAUSAU         MOSUNNY   67  51  56 NE8       29.67F
WIS RAPIDS     MOSUNNY   68  53  58 CALM      29.69F
MARSHFIELD     PTSUNNY   67  51  56 E8        29.69R
RICE LAKE      MOSUNNY   63  47  56 SE8       29.71F
$$

...NORTHEAST IOWA...


CITY           SKY/WX    TMP DP  RH WIND       PRES   REMARKS
WATERLOO         N/A     64  49  57 MISG      29.70S
DUBUQUE        CLOUDY    58  52  80 VRB7      29.71R
DECORAH        NOT AVBL
MASON CITY     SUNNY     63  49  60 S8        29.70F
CHARLES CITY   PTSUNNY   61  52  72 CALM      29.71S
OELWEIN        SUNNY     61  54  77 CALM      29.71F
$$

...ELSEWHERE IN IOWA...


CITY           SKY/WX    TMP DP  RH WIND       PRES   REMARKS
DES MOINES     MOSUNNY   66  49  54 S5        29.70F
IOWA CITY      MOSUNNY   66  53  63 CALM      29.71F
FORT DODGE     MOSUNNY   66  50  55 S9        29.68F
MARSHALLTOWN   SUNNY     64  51  62 S7        29.70S
CEDAR RAPIDS   MOSUNNY   63  52  67 NW5       29.70S
$$

...NORTHERN ILLINOIS...


CITY           SKY/WX    TMP DP  RH WIND       PRES   REMARKS
CHICAGO-OHARE  CLOUDY    63  52  67 N12       29.62S
CHICAGO-MIDWAY CLOUDY    62  53  72 NW14      29.62S
MOLINE         MOSUNNY   66  53  63 NW7       29.69S
ROCKFORD       CLOUDY    61  53  75 N9        29.69R
PEORIA         PTSUNNY   63  54  72 NW9       29.70R
$$

NOTE: "FAIR" INDICATES FEW OR NO CLOUDS BELOW 12,000 FEET WITH NO
SIGNIFICANT WEATHER AND/OR OBSTRUCTIONS TO VISIBILITY. WIND
SPEEDS ARE IN MILES-PER-HOUR.




USA.gov is the U.S. government's official web portal to all federal, state and local government web resources and services.